S5KEA LJPZ-LJBO

Flight info

Callsign S5KEA
Flight time 0h 39m
Altitude 5500
Route DCT 453325N0134500E 453324N0135244E 453621N0135544E 454137N0135800E/N0110A065 455235N0135759E 4611N01343E/N0110A025 461811N0132855E DCT
Aircraft C172/L-SBDGR/C

Departure

Time 2026-05-04 14:15
Airport Portorož Airport (LJPZ)

Arrival

Time 2026-05-04 14:54
Airport Bovec Airfield (LJBO)
Time Latitude Longitude Altitude Speed Heading
2026-05-04 13:54 45.47543 13.61488 3 ft 0 kts 242°
2026-05-04 14:11 45.47570 13.61441 3 ft 7 kts 332°
2026-05-04 14:11 45.47628 13.61396 2 ft 10 kts 330°
2026-05-04 14:12 45.47689 13.61346 1 ft 10 kts 313°
2026-05-04 14:12 45.47706 13.61285 1 ft 0 kts 287°
2026-05-04 14:12 45.47712 13.61256 1 ft 8 kts 277°
2026-05-04 14:13 45.47695 13.61215 1 ft 3 kts 152°
2026-05-04 14:13 45.47689 13.61220 1 ft 0 kts 152°
2026-05-04 14:13 45.47665 13.61239 1 ft 17 kts 151°
2026-05-04 14:14 45.47438 13.61417 2 ft 58 kts 151°
2026-05-04 14:14 45.46620 13.62049 329 ft 62 kts 156°
2026-05-04 14:14 45.46216 13.62308 483 ft 66 kts 160°
2026-05-04 14:15 45.45716 13.63354 760 ft 78 kts 77°
2026-05-04 14:15 45.46378 13.64742 1024 ft 92 kts 55°
2026-05-04 14:16 45.47080 13.66179 1440 ft 85 kts 62°
2026-05-04 14:16 45.47377 13.66867 1687 ft 79 kts 59°
2026-05-04 14:17 45.48363 13.67550 2037 ft 84 kts 12°
2026-05-04 14:17 45.48960 13.67669 2191 ft 89 kts
2026-05-04 14:17 45.50165 13.68298 2448 ft 98 kts 38°
2026-05-04 14:18 45.50704 13.68932 2572 ft 101 kts 38°
2026-05-04 14:18 45.51797 13.70273 2821 ft 105 kts 44°
2026-05-04 14:19 45.52856 13.71726 3058 ft 106 kts 43°
2026-05-04 14:19 45.53445 13.72375 3178 ft 107 kts 35°
2026-05-04 14:19 45.54054 13.72994 3298 ft 107 kts 34°
2026-05-04 14:19 45.54637 13.73673 3417 ft 108 kts 44°
2026-05-04 14:20 45.55170 13.74416 3536 ft 108 kts 43°
2026-05-04 14:20 45.55723 13.75148 3654 ft 108 kts 43°
2026-05-04 14:20 45.56085 13.76062 3769 ft 107 kts 81°
2026-05-04 14:21 45.56085 13.78120 4037 ft 103 kts 102°
2026-05-04 14:21 45.55971 13.79145 4159 ft 104 kts 103°
2026-05-04 14:21 45.55896 13.80178 4280 ft 105 kts 95°
2026-05-04 14:21 45.55859 13.81224 4400 ft 106 kts 98°
2026-05-04 14:22 45.55793 13.82264 4521 ft 106 kts 99°
2026-05-04 14:22 45.55724 13.83314 4640 ft 107 kts 99°
2026-05-04 14:22 45.55684 13.84373 4760 ft 107 kts 94°
2026-05-04 14:22 45.55675 13.85444 4882 ft 108 kts 94°
2026-05-04 14:23 45.55671 13.87573 5172 ft 107 kts 96°
2026-05-04 14:23 45.55699 13.88636 5314 ft 109 kts 74°
2026-05-04 14:23 45.56152 13.89486 5449 ft 109 kts 38°
2026-05-04 14:24 45.56786 13.90121 5485 ft 115 kts 31°
2026-05-04 14:24 45.57494 13.90709 5513 ft 122 kts 21°
2026-05-04 14:24 45.58306 13.91183 5491 ft 127 kts 18°
2026-05-04 14:24 45.59101 13.91737 5502 ft 130 kts 26°
2026-05-04 14:25 45.59903 13.92385 5495 ft 132 kts 27°
2026-05-04 14:25 45.61538 13.93477 5481 ft 129 kts 17°
2026-05-04 14:25 45.62385 13.93885 5481 ft 126 kts 11°
2026-05-04 14:26 45.63238 13.94200 5496 ft 128 kts 10°
2026-05-04 14:26 45.64085 13.94628 5490 ft 129 kts 18°
2026-05-04 14:26 45.64918 13.95087 5494 ft 129 kts 14°
2026-05-04 14:26 45.65778 13.95500 5505 ft 130 kts 11°
2026-05-04 14:27 45.66657 13.95827 5505 ft 130 kts
2026-05-04 14:27 45.67548 13.96107 5514 ft 131 kts
2026-05-04 14:27 45.68445 13.96384 5492 ft 132 kts
2026-05-04 14:27 45.69349 13.96613 5495 ft 130 kts 359°
2026-05-04 14:28 45.70253 13.96668 5498 ft 129 kts 355°
2026-05-04 14:28 45.71164 13.96715 5499 ft 131 kts 354°
2026-05-04 14:28 45.72063 13.96710 5571 ft 123 kts 353°
2026-05-04 14:28 45.72867 13.96712 5757 ft 112 kts 353°
2026-05-04 14:29 45.74383 13.96774 6032 ft 105 kts 349°
2026-05-04 14:29 45.75856 13.96823 6258 ft 109 kts 353°
2026-05-04 14:30 45.76635 13.96825 6318 ft 114 kts 352°
2026-05-04 14:30 45.77443 13.96814 6372 ft 117 kts 352°
2026-05-04 14:30 45.79089 13.96739 6466 ft 120 kts 350°
2026-05-04 14:31 45.79938 13.96698 6472 ft 124 kts 353°
2026-05-04 14:31 45.81704 13.96747 6468 ft 127 kts 352°
2026-05-04 14:32 45.83484 13.96733 6466 ft 128 kts 354°
2026-05-04 14:32 45.84388 13.96800 6465 ft 129 kts 356°
2026-05-04 14:32 45.85286 13.96876 6471 ft 129 kts 356°
2026-05-04 14:32 45.86177 13.96945 6474 ft 129 kts 356°
2026-05-04 14:33 45.87078 13.96966 6470 ft 127 kts 348°
2026-05-04 14:33 45.87938 13.96777 6471 ft 124 kts 339°
2026-05-04 14:33 45.88747 13.96393 6472 ft 121 kts 327°
2026-05-04 14:33 45.89497 13.95846 6469 ft 120 kts 325°
2026-05-04 14:34 45.90224 13.95269 6471 ft 119 kts 323°
2026-05-04 14:34 45.90943 13.94686 6467 ft 119 kts 323°
2026-05-04 14:34 45.91676 13.94132 6466 ft 118 kts 320°
2026-05-04 14:34 45.92359 13.93480 6469 ft 117 kts 317°
2026-05-04 14:35 45.93081 13.92883 6473 ft 120 kts 324°
2026-05-04 14:35 45.93822 13.92351 6475 ft 120 kts 325°
2026-05-04 14:35 45.94560 13.91797 6474 ft 119 kts 322°
2026-05-04 14:35 45.95286 13.91200 6482 ft 120 kts 322°
2026-05-04 14:36 45.96014 13.90586 6481 ft 120 kts 322°
2026-05-04 14:36 45.96735 13.89983 6474 ft 121 kts 322°
2026-05-04 14:36 45.97494 13.89441 6464 ft 120 kts 326°
2026-05-04 14:36 45.98242 13.88932 6462 ft 119 kts 326°
2026-05-04 14:37 45.99005 13.88445 6455 ft 119 kts 328°
2026-05-04 14:37 45.99762 13.87952 6469 ft 119 kts 328°
2026-05-04 14:37 46.00519 13.87450 6471 ft 120 kts 328°
2026-05-04 14:37 46.01271 13.86929 6474 ft 120 kts 324°
2026-05-04 14:38 46.02016 13.86360 6476 ft 121 kts 324°
2026-05-04 14:38 46.02766 13.85785 6477 ft 121 kts 324°
2026-05-04 14:38 46.03507 13.85219 6480 ft 121 kts 324°
2026-05-04 14:38 46.04249 13.84650 6481 ft 121 kts 324°
2026-05-04 14:39 46.04994 13.84082 6477 ft 120 kts 324°
2026-05-04 14:39 46.05734 13.83517 6472 ft 120 kts 324°
2026-05-04 14:39 46.06466 13.82949 6476 ft 119 kts 323°
2026-05-04 14:40 46.07892 13.81723 6479 ft 119 kts 321°
2026-05-04 14:40 46.08603 13.81107 6479 ft 119 kts 321°
2026-05-04 14:40 46.09351 13.80555 6487 ft 122 kts 328°
2026-05-04 14:40 46.10129 13.80070 6484 ft 122 kts 329°
2026-05-04 14:41 46.10910 13.79590 6478 ft 121 kts 329°
2026-05-04 14:41 46.11680 13.79120 6478 ft 121 kts 329°
2026-05-04 14:41 46.13231 13.78180 6472 ft 120 kts 329°
2026-05-04 14:42 46.14891 13.77577 6485 ft 123 kts 333°
2026-05-04 14:42 46.15665 13.77045 6486 ft 120 kts 320°
2026-05-04 14:42 46.16352 13.76368 6485 ft 120 kts 318°
2026-05-04 14:43 46.17020 13.75677 6498 ft 117 kts 314°
2026-05-04 14:43 46.17591 13.74849 6510 ft 115 kts 308°
2026-05-04 14:43 46.18113 13.73987 6513 ft 113 kts 300°
2026-05-04 14:43 46.18565 13.73100 6503 ft 106 kts 298°
2026-05-04 14:44 46.18970 13.72177 6376 ft 109 kts 295°
2026-05-04 14:44 46.19344 13.71214 6262 ft 113 kts 292°
2026-05-04 14:44 46.19700 13.70183 6139 ft 115 kts 292°
2026-05-04 14:44 46.20057 13.69141 6010 ft 117 kts 293°
2026-05-04 14:45 46.20490 13.68136 5884 ft 119 kts 298°
2026-05-04 14:45 46.20899 13.67098 5758 ft 118 kts 292°
2026-05-04 14:45 46.21229 13.66034 5638 ft 116 kts 288°
2026-05-04 14:45 46.21545 13.64956 5507 ft 115 kts 288°
2026-05-04 14:46 46.21853 13.63887 5378 ft 116 kts 288°
2026-05-04 14:46 46.22205 13.62847 5249 ft 118 kts 300°
2026-05-04 14:46 46.22769 13.61961 5125 ft 121 kts 315°
2026-05-04 14:46 46.23421 13.61194 4994 ft 123 kts 327°
2026-05-04 14:47 46.24203 13.60654 4874 ft 123 kts 332°
2026-05-04 14:47 46.24970 13.60098 4752 ft 123 kts 324°
2026-05-04 14:47 46.25670 13.59404 4639 ft 122 kts 321°
2026-05-04 14:47 46.26365 13.58690 4526 ft 121 kts 320°
2026-05-04 14:48 46.26895 13.57797 4546 ft 115 kts 297°
2026-05-04 14:48 46.27291 13.56803 4549 ft 114 kts 292°
2026-05-04 14:48 46.27620 13.55761 4541 ft 115 kts 289°
2026-05-04 14:48 46.27849 13.54665 4528 ft 115 kts 281°
2026-05-04 14:49 46.28056 13.53500 4442 ft 122 kts 285°
2026-05-04 14:49 46.28375 13.52391 4313 ft 118 kts 294°
2026-05-04 14:49 46.28758 13.51361 4088 ft 117 kts 296°
2026-05-04 14:49 46.29165 13.50361 3846 ft 117 kts 304°
2026-05-04 14:50 46.29715 13.49522 3604 ft 113 kts 322°
2026-05-04 14:50 46.30403 13.49093 3368 ft 106 kts 344°
2026-05-04 14:50 46.31126 13.49010 3135 ft 102 kts
2026-05-04 14:50 46.31731 13.49467 2893 ft 99 kts 47°
2026-05-04 14:51 46.32077 13.50280 2700 ft 92 kts 73°
2026-05-04 14:51 46.32213 13.51164 2579 ft 87 kts 83°
2026-05-04 14:51 46.32318 13.52025 2497 ft 86 kts 82°
2026-05-04 14:51 46.32369 13.52872 2493 ft 80 kts 121°
2026-05-04 14:52 46.31967 13.53314 2504 ft 77 kts 154°
2026-05-04 14:52 46.31629 13.53906 2411 ft 89 kts 94°
2026-05-04 14:52 46.31805 13.54801 2358 ft 97 kts 73°
2026-05-04 14:52 46.32038 13.55714 2337 ft 97 kts 73°
2026-05-04 14:53 46.32270 13.56646 2306 ft 97 kts 72°
2026-05-04 14:53 46.32626 13.57392 2257 ft 89 kts 29°
2026-05-04 14:53 46.33202 13.57435 2124 ft 86 kts 322°
2026-05-04 14:53 46.33278 13.56658 1906 ft 82 kts 253°
2026-05-04 14:54 46.33113 13.55905 1669 ft 78 kts 249°
2026-05-04 14:54 46.32946 13.55169 1444 ft 69 kts 252°
2026-05-04 14:54 46.32832 13.54656 1424 ft 36 kts 252°
2026-05-04 14:54 46.32806 13.54513 1420 ft 6 kts 328°
2026-05-04 14:55 46.32817 13.54585 1422 ft 11 kts 75°
2026-05-04 14:55 46.32843 13.54707 1426 ft 12 kts 72°
2026-05-04 14:55 46.32870 13.54826 1431 ft 11 kts 73°
2026-05-04 14:55 46.32892 13.54926 1436 ft 9 kts 73°
2026-05-04 14:56 46.32918 13.55031 1438 ft 14 kts 71°
2026-05-04 14:56 46.32944 13.55160 1443 ft 12 kts 70°
2026-05-04 14:56 46.32973 13.55287 1447 ft 12 kts 72°
2026-05-04 14:56 46.33017 13.55365 1449 ft 5 kts
2026-05-04 14:57 46.33036 13.55332 1449 ft 7 kts 307°
2026-05-04 14:57 46.33072 13.55323 1449 ft 0 kts 67°